Погода в Таразе

Казахстан     42°54′04″N   71°22′41″E
темп.,
°C
ветер,
м/с
пор.,
м/с
влажн.,
%
обл.,
%
осадки,
мм/ч
давл.,
гПа
погр.,
м
3 августа, вт
вт300:00+26в3317100 0.0 100529
03:00+23ю221999 0.0 100517
06:00+22ююз33214 0.0 100633
09:00+29всв01141 0.0 1007343
12:00+35с54111 0.0 10051969
15:00+38св4380 0.0 10033986
18:00+38всв6590 0.0 10024207
21:00+30в49140 0.0 1004114
4 августа, ср
ср400:00+26всв471997 0.0 1004100
03:00+24ю22221 0.0 100516
06:00+22ююз33230 0.0 100632
09:00+29зсз22150 0.0 1006401
12:00+36ссв46111 0.0 10051454
15:00+39ссв64912 0.0 10024575
18:00+38ссв75933 0.0 10024613
21:00+31св371859 0.0 1004177
5 августа, чт
чт500:00+28в6132685 0.0 1005326
03:00+26в482811 0.0 1005146
06:00+23ююв1233100 0.0 100612
09:00+28ссв2325100 0.0 1007575
12:00+34св7817100 0.0 10061693
15:00+36ссв871585 0.0 10043042
18:00+35ссв8615100 0.0 10042507
21:00+28в2522100 0.0 100682
6 августа, пт
пт600:00+24в3730100 0.0 1007120
03:00+22вюв223318 0.0 100620
06:00+20ююв11400 0.0 100611
09:00+28св35210 0.0 1006567
12:00+34св66140 0.0 10051856
15:00+36ссв75125 0.0 10032696
18:00+35ссв75123 0.0 10033117
21:00+28св410187 0.0 1005166
7 августа, сб
сб700:00+26всв48216 0.0 1005114
03:00+22юв22273 0.0 100414
06:00+21ю22320 0.0 100612
09:00+29юз11201 0.0 1006406
12:00+35св44130 0.0 10052091
15:00+38ссв54100 0.0 10033917
18:00+37с641033 0.0 10044320
21:00+29ююв331988 0.0 100667